TimeCDT,TemperatureF,Dew PointF,Humidity,Sea Level PressureIn,VisibilityMPH,Wind Direction,Wind SpeedMPH,Gust SpeedMPH,PrecipitationIn,Events,Conditions,WindDirDegrees,DateUTC
12:53 AM,54.0,48.0,80,30.07,10.0,Calm,Calm,-,N/A,,Clear,0,2013-09-14 05:53:00
1:53 AM,52.0,46.0,80,30.07,10.0,Calm,Calm,-,N/A,,Clear,0,2013-09-14 06:53:00
2:53 AM,50.0,46.0,86,30.06,10.0,East,3.5,-,N/A,,Clear,90,2013-09-14 07:53:00
3:53 AM,53.1,46.9,80,30.06,10.0,SE,3.5,-,N/A,,Clear,130,2013-09-14 08:53:00
4:53 AM,51.1,46.0,83,30.06,10.0,SE,3.5,-,N/A,,Clear,130,2013-09-14 09:53:00
5:53 AM,51.1,46.0,83,30.07,10.0,SE,3.5,-,N/A,,Clear,130,2013-09-14 10:53:00
6:53 AM,51.1,46.0,83,30.07,10.0,ESE,3.5,-,N/A,,Clear,120,2013-09-14 11:53:00
7:53 AM,55.0,48.0,77,30.08,10.0,SE,5.8,-,N/A,,Clear,130,2013-09-14 12:53:00
8:53 AM,60.1,48.9,67,30.09,10.0,SE,10.4,-,N/A,,Clear,130,2013-09-14 13:53:00
9:53 AM,66.9,50.0,54,30.08,10.0,SSE,11.5,-,N/A,,Clear,150,2013-09-14 14:53:00
10:53 AM,70.0,52.0,53,30.08,10.0,SSE,10.4,-,N/A,,Clear,160,2013-09-14 15:53:00
11:53 AM,73.9,52.0,46,30.06,10.0,South,12.7,-,N/A,,Clear,180,2013-09-14 16:53:00
12:53 PM,77.0,52.0,42,30.04,10.0,SSE,11.5,19.6,N/A,,Clear,150,2013-09-14 17:53:00
1:53 PM,79.0,50.0,36,30.01,10.0,South,12.7,-,N/A,,Clear,170,2013-09-14 18:53:00
2:53 PM,81.0,48.9,33,29.99,10.0,South,8.1,21.9,N/A,,Clear,180,2013-09-14 19:53:00
3:53 PM,80.1,50.0,35,29.97,10.0,South,11.5,-,N/A,,Clear,170,2013-09-14 20:53:00
4:53 PM,79.0,50.0,36,29.95,10.0,SSE,12.7,-,N/A,,Clear,160,2013-09-14 21:53:00
5:53 PM,79.0,50.0,36,29.94,10.0,SSE,12.7,-,N/A,,Clear,160,2013-09-14 22:53:00
6:53 PM,75.9,50.0,40,29.94,10.0,SE,10.4,-,N/A,,Clear,140,2013-09-14 23:53:00
7:53 PM,72.0,50.0,46,29.93,10.0,SE,8.1,-,N/A,,Clear,140,2013-09-15 00:53:00
8:53 PM,71.1,51.1,49,29.93,10.0,SE,10.4,-,N/A,,Clear,140,2013-09-15 01:53:00
9:53 PM,70.0,51.1,51,29.93,10.0,SE,6.9,-,N/A,,Clear,140,2013-09-15 02:53:00
10:53 PM,70.0,50.0,49,29.93,10.0,SE,10.4,-,N/A,,Clear,140,2013-09-15 03:53:00
11:53 PM,68.0,50.0,52,29.93,10.0,SSE,9.2,-,N/A,,Clear,160,2013-09-15 04:53:00